Location: Asheville, NC
(35.6000°N, 82.5500°W)
Time: 04:56:01
(UTC-04:00)

OTV 5 (USA 277) - Pass Details

Date: 11 October 2017
Orbit: 404 x 417 km, 43.0° (Epoch: 07 September)

Event Time Altitude Azimuth Distance (km) Brightness Sun altitude
Rises 20:27:06 0° 265° (W) 2,345 ? -18.6°
Reaches altitude 10° 20:29:19 10° 275° (W) 1,484 ? -19.0°
Maximum altitude 20:32:26 35° 343° (NNW) 691 ? -19.7°
Enters shadow 20:33:03 32° 9° (N) 738 ? -19.8°
